Location: Little Bennett Regional Park
(39.2840°N, 77.2890°W)
Time: 04:42:47
(UTC-04:00)

Daily predictions for brighter satellites

Satellite Brightness Start Highest point End
(mag) Time Altitude Azimuth Time Altitude Azimuth Time Altitude Azimuth
Cosmos 1932 4.5 00:06:31 58° WSW 00:07:44 75° WNW 00:13:59 10° NNE
Cosmos 1470 4.4 00:08:53 10° N 00:11:08 32° N 00:11:08 32° N
Cosmos 2369 Rocket 3.6 00:08:26 10° NW 00:12:56 25° WSW 00:13:08 25° WSW
Cosmos 1953 4.1 00:11:05 10° NNW 00:13:33 28° WNW 00:13:33 28° WNW
Cosmos 1570 Rocket 4.1 00:12:39 10° NNW 00:17:35 74° NW 00:17:35 74° NW
Cosmos 2221 3.9 00:15:36 10° N 00:18:26 33° NE 00:18:26 33° NE
Cosmos 1850 Rocket 4.1 00:22:19 70° NW 00:22:19 70° NW 00:27:11 10° NNE
H-2A R/B 4.2 00:18:07 10° NNE 00:19:58 26° NNE 00:19:58 26° NNE
Cosmos 1607 3.8 00:23:14 83° SE 00:23:16 83° ESE 00:29:31 10° NNE
Meteor 1-16 Rocket 4.5 00:21:36 10° N 00:26:56 58° ENE 00:26:56 58° ENE
NOSS 3-2 (C) 4.3 00:32:12 36° E 00:32:12 36° E 00:36:55 10° NE
Lacrosse 4 Rocket 4.0 00:31:20 13° WNW 00:32:48 15° NW 00:35:15 10° NNW
COSMOS 2406 3.6 00:32:43 55° W 00:33:14 57° WNW 00:38:54 10° NNE
Terra 4.2 00:35:13 13° W 00:35:13 13° W 00:37:12 10° WNW
ALOS 2 3.6 00:42:00 45° N 00:42:00 45° N 00:45:03 10° NNW
Cosmos 1417 Rocket 4.4 00:34:38 10° N 00:40:46 71° E 00:40:49 71° E
Cosmos 1553 Rocket 4.2 00:40:16 10° N 00:46:31 60° E 00:46:50 59° E
Cosmos 2082 Rocket 3.7 01:01:19 25° E 01:01:19 25° E 01:04:51 10° NE
CZ-4C R/B 2.4 01:07:58 64° NE 01:07:58 64° NE 01:13:02 10° NE
Meteor 1-24 Rocket 3.9 01:08:02 73° WNW 01:08:02 73° WNW 01:13:58 10° N
Cosmos 1655 Rocket 4.3 01:09:33 55° W 01:09:55 56° W 01:16:05 10° N
Timation 2 Rocket 4.2 01:11:25 64° ESE 01:11:31 64° ESE 01:18:17 10° NNE
S3M 3.8 01:05:42 10° N 01:11:57 85° W 01:11:57 85° W
Cosmos 1833 Rocket 4.2 01:14:49 25° E 01:14:49 25° E 01:18:30 10° NE
Cosmos 2266 Rocket 4.2 01:14:31 58° E 01:14:44 58° E 01:21:01 10° NNE
NOSS 3-2 (A) 3.4 01:16:21 78° W 01:16:36 80° NW 01:23:14 10° NNE
CZ-4B R/B 4.3 01:24:16 15° NW 01:24:16 15° NW 01:25:06 10° NW
Cosmos 1943 Rocket 4.3 01:21:52 10° WNW 01:23:46 14° W 01:23:46 14° W
Cosmos 1763 Rocket 3.9 01:29:19 10° N 01:34:25 57° ENE 01:34:25 57° ENE
Cosmos 1867 3.9 01:35:25 59° ENE 01:35:25 59° ENE 01:40:01 10° NE
Meteor 1-21 Rocket 4.3 01:36:29 76° ENE 01:36:29 76° ENE 01:41:58 10° NNE
Cosmos 2344 3.5 01:38:01 63° S 01:39:17 74° ESE 01:47:49 10° NE
CZ-2C R/B 3.3 01:39:24 65° ENE 01:39:26 65° ENE 01:45:02 10° N
Cosmos 1656 4.4 01:41:05 10° NNW 01:46:36 47° ENE 01:47:43 42° E
USA 215 3.6 01:41:52 10° ENE 01:47:54 47° ESE 01:47:54 47° ESE
Cosmos 1354 Rocket 4.2 01:49:06 69° NE 01:49:06 69° NE 01:53:51 10° NNE
Meteor 2-20 4.4 01:52:46 67° W 01:52:59 67° W 01:59:09 10° N
CZ-2C R/B 2.9 01:47:59 10° N 01:53:23 60° WNW 01:53:23 60° WNW
Cosmos 1503 Rocket 4.1 01:56:46 76° NNE 01:56:46 76° NNE 02:01:43 10° NNE
Cosmos 2369 3.8 01:54:27 10° NNW 01:59:26 63° WNW 01:59:26 63° WNW
In-Cosmos 22 4.5 02:02:13 55° WNW 02:02:13 55° WNW 02:07:35 10° N
Cosmos 841 Rocket 3.7 02:06:53 10° NNW 02:11:28 64° NW 02:11:28 64° NW
Lacrosse 5 3.6 02:12:06 10° NNW 02:16:38 32° NE 02:21:08 10° E
CENTAUR R/B 2.5 02:24:16 60° SSE 02:24:56 64° ESE 02:31:35 10° NE
Cosmos 1437 Rocket 4.1 02:22:41 10° NNW 02:25:05 35° NNW 02:25:05 35° NNW
Cosmos 1980 Rocket 3.0 02:22:51 10° NNW 02:28:19 48° ENE 02:31:05 27° ESE
Cosmos 1805 Rocket 3.8 02:31:12 66° NNE 02:31:12 66° NNE 02:35:05 10° N
BREEZE-M DEB (TANK) 4.1 02:35:34 24° E 02:35:34 24° E 02:38:18 10° ENE
Cosmos 1300 3.5 02:35:46 10° N 02:38:46 49° NNE 02:38:46 49° NNE
Cosmos 1633 Rocket 3.4 02:40:36 60° E 02:40:36 60° E 02:44:52 10° NNE
ERS-2 3.0 02:39:21 10° NNE 02:42:12 48° NE 02:42:12 48° NE
Cosmos 2082 Rocket 2.9 02:43:09 38° W 02:44:02 41° WNW 02:49:24 10° N
Cosmos 2315 Rocket 4.4 02:39:04 10° NNW 02:45:01 44° W 02:45:31 43° WSW
Cosmos 1707 Rocket 3.7 02:41:19 10° N 02:45:14 70° NNW 02:45:14 70° NNW
NPP 3.8 02:41:12 10° NNE 02:46:33 63° ESE 02:47:32 53° SSE
Cosmos 1666 Rocket 3.6 02:47:42 76° N 02:47:42 76° N 02:51:41 10° N
Aureole 1 Rocket 3.4 02:44:20 10° NNW 02:48:58 76° WSW 02:49:23 71° SSW
Cosmos 1697 Rocket 2.6 02:44:12 10° NNW 02:49:50 69° WSW 02:50:18 65° SW
Cosmos 371 Rocket 4.4 02:46:42 10° N 02:51:19 41° ENE 02:54:01 22° SE
CBERS-1 4.3 02:48:37 10° NNE 02:53:41 59° E 02:54:40 50° SE
ADEOS 4.4 02:48:51 10° NNE 02:53:48 42° E 02:55:18 34° SE
CZ-4C R/B 4.3 02:53:07 12° WNW 02:56:27 20° NW 03:00:51 10° N
ASTEX 1 4.3 02:52:58 10° NNW 02:57:28 35° WNW 02:57:30 35° WNW
Cosmos 1833 Rocket 3.4 02:56:30 37° W 02:57:35 41° WNW 03:02:55 10° N
Cosmos 1470 Rocket 4.3 02:57:02 40° ESE 02:57:46 44° E 03:02:00 10° NNE
Cosmos 1745 Rocket 3.9 02:57:59 51° SSW 02:59:42 81° W 03:06:06 10° N
BREEZE-M DEB (TANK) 4.5 02:58:48 10° NW 03:02:05 52° NE 03:13:06 10° ESE
Cosmos 1933 Rocket 4.2 03:01:52 43° ESE 03:02:35 48° E 03:06:49 10° NNE
ARIANE 5 R/B 4.1 02:58:42 10° NE 03:03:04 28° E 03:05:27 19° SE
Cosmos 2360 4.4 03:01:05 10° NNW 03:06:48 70° ENE 03:10:43 21° SE
Meteor 1-27 4.3 03:01:01 10° NNW 03:06:50 67° W 03:08:08 52° SSW
Cosmos 1455 3.9 03:03:45 10° NNE 03:07:07 29° ENE 03:08:33 22° ESE
Nadezhda 1 Rocket 3.8 03:03:05 10° N 03:09:17 84° W 03:11:30 42° S
AQUA 3.7 03:04:44 10° NNE 03:09:31 86° ESE 03:10:19 62° S
ATLAS 5 CENTAUR R/B 3.8 03:08:54 16° SE 03:10:32 18° ESE 03:13:55 10° ENE
Cosmos 1709 Rocket 4.5 03:08:22 28° SSE 03:11:39 56° E 03:17:46 10° NNE
Meteor 1-4 Rocket 3.7 03:09:19 10° N 03:12:54 41° ENE 03:13:57 32° ESE
Meteor 2-10 4.4 03:07:56 10° N 03:13:07 63° E 03:15:58 27° SSE
USA 161 3.9 03:14:39 20° NE 03:14:39 20° NE 03:15:46 10° NNE
SL-14 R/B 3.8 03:14:51 46° NW 03:14:51 46° NW 03:18:08 10° N
H-2A R/B 2.8 03:15:26 43° SSW 03:16:30 48° SSE 03:34:09 10° E
ISS 0.0 03:15:21 10° NNW 03:17:02 13° NNE 03:18:43 10° NE
Cosmos 2058 4.3 03:19:43 27° WNW 03:19:43 27° WNW 03:23:00 10° NNW
Cosmos 1726 3.0 03:17:01 10° NNW 03:19:43 38° NW 03:19:43 38° NW
IRS-1C 4.0 03:17:44 10° NNE 03:23:06 89° WNW 03:24:53 44° SSW
Sich 1 3.7 03:23:35 40° W 03:23:42 40° WNW 03:27:53 10° N
Cosmos 540 Rocket 3.9 03:21:17 10° NNW 03:26:06 40° WSW 03:26:15 40° WSW
Okean O Rocket 4.3 03:24:32 10° ENE 03:26:29 13° E 03:28:25 10° ESE
SL-16 R/B 2.9 03:21:36 10° NNW 03:27:11 55° ENE 03:32:43 10° SE
Cosmos 1703 3.3 03:27:21 62° W 03:27:30 63° W 03:31:27 10° N
USA 215 3.8 03:24:52 10° NE 03:31:08 51° NW 03:35:14 22° W
SL-08 R/B 3.7 03:37:04 41° WSW 03:37:43 44° W 03:42:23 10° NNW
Cosmos 1862 Rocket 3.5 03:34:00 10° N 03:38:31 89° WSW 03:40:18 36° S
Cosmos 1626 2.1 03:37:58 56° S 03:38:41 81° E 03:42:26 10° N
Cosmos 332 Rocket 4.2 03:34:34 10° NNW 03:39:05 41° WSW 03:39:28 40° WSW
EO 1 Del DPAF 3.8 03:38:05 22° SSE 03:40:27 57° ENE 03:44:19 10° N
Lacrosse 5 rocket 3.0 03:36:42 10° NNW 03:40:51 39° NE 03:45:07 10° ESE
Cosmos 2322 Rocket 2.3 03:35:26 10° NNW 03:41:05 77° ENE 03:46:41 10° SSE
Resurs 1-4 Rocket 2.8 03:38:38 10° NNE 03:43:48 49° E 03:47:33 18° SSE
Cosmos 1271 Rocket 2.5 03:42:03 10° NNW 03:45:49 70° W 03:46:34 52° SSW
SEDSat Delta rocket 4.4 03:47:11 31° SW 03:49:44 43° S 03:55:53 10° ESE
OAO 3 Rocket 3.4 03:56:42 35° SW 03:58:08 48° S 04:02:40 10° E
Lacrosse 5 2.0 03:54:53 10° NW 03:59:42 47° SW 04:04:31 10° SSE
Cosmos 968 Rocket 4.3 03:58:51 26° WSW 04:00:51 36° WNW 04:05:36 10° N
Cosmos 2181 Rocket 3.9 03:56:20 10° NNW 04:02:29 72° W 04:07:43 15° S
Cosmos 1869 Rocket 4.1 03:59:35 17° SSE 04:02:49 55° E 04:07:08 10° NNE
Spot 4 Rocket 4.5 04:03:55 10° N 04:08:50 46° WNW 04:11:28 25° SW
CRYOSAT 2 4.4 04:04:35 10° N 04:09:30 82° E 04:13:30 15° S
Cosmos 1980 Rocket 3.3 04:07:41 10° NW 04:11:55 22° W 04:12:46 21° WSW
Cosmos 2360 Rocket 3.1 04:07:38 10° NNW 04:13:07 50° ENE 04:18:33 10° SE
CENTAUR R/B 4.0 04:11:26 12° W 04:16:09 28° NW 04:22:01 10° NNE
Cosmos 923 Rocket 4.0 04:11:38 10° NNW 04:16:52 66° WSW 04:22:01 10° S
CZ-4B R/B 4.4 04:13:06 10° NNE 04:18:13 40° E 04:23:22 10° SSE
Cosmos 2219 4.2 04:16:45 10° S 04:22:07 44° ESE 04:27:32 10° NE
IRS-1C Rocket 4.5 04:17:52 10° NNE 04:23:08 65° ESE 04:28:22 10° S
Cosmos 2322 4.3 04:17:44 10° NNW 04:23:26 61° ENE 04:29:04 10° SE
CZ-2D R/B 2.1 04:18:29 10° N 04:23:43 72° WNW 04:27:56 16° SSW
Cosmos 1680 Rocket 3.4 04:21:53 10° NNW 04:27:05 70° WSW 04:32:14 10° S
SL-16 R/B 2.6 04:21:27 10° S 04:27:36 59° WSW 04:33:48 10° NNW
USA 229 DEB 4.3 04:24:37 10° S 04:31:12 52° ESE 04:37:55 10° NE
USA 229 4.4 04:24:41 10° S 04:31:18 52° ESE 04:38:01 10° NE
Cosmos 1703 Rocket 3.6 04:28:51 10° NNW 04:33:08 56° W 04:37:21 10° S
H-2A ROCKET BODY 2.9 04:33:13 18° SSW 04:33:32 18° SSW 04:35:40 10° SSE
Thor Agena Rocket 4.1 04:29:26 10° SSE 04:34:40 65° ENE 04:39:55 10° N
Cosmos 1346 4.1 04:35:20 22° WSW 04:36:36 30° WNW 04:39:23 10° NNW
Cosmos 2074 Rocket 4.0 04:30:37 11° SSW 04:36:38 71° W 04:42:54 10° N
Cosmos 2184 Rocket 4.1 04:32:59 10° SSW 04:39:19 71° W 04:45:41 10° N
IRS-1D 4.3 04:35:10 10° N 04:40:07 39° WNW 04:44:11 14° SW
CZ-2D R/B 3.4 04:36:23 10° N 04:40:36 80° WNW 04:44:33 11° SSW
ARIANE 5 R/B 3.4 04:37:39 10° N 04:42:09 32° WNW 04:45:48 14° SW
Cosmos 1455 4.0 04:40:19 10° NW 04:42:35 15° W 04:43:34 14° WSW
BREEZE-M DEB (TANK) 4.5 04:37:14 10° WNW 04:44:05 40° N 04:47:07 10° ENE
Cosmos 389 Rocket 4.2 04:41:26 10° N 04:44:53 36° ENE 04:48:19 10° SE
FALCON 9 R/B 1.3 04:48:01 19° SW 04:49:01 27° S 04:51:20 10° ESE
ATLAS CENTAUR R/B 3.6 04:45:25 10° NNW 04:49:41 33° NE 04:53:39 10° ESE
Cosmos 304 Rocket 4.1 04:45:57 10° NNW 04:50:35 46° WSW 04:55:10 10° S
COSMOS 2428 3.7 04:46:12 10° NNW 04:51:44 51° ENE 04:57:14 10° SE
Cosmos 1833 4.5 04:46:40 13° SW 04:51:48 58° WNW 04:57:29 10° NNE
UNKNOWN OBJECT B 3.4 04:48:19 10° N 04:51:51 37° WNW 04:55:05 12° SW
ISS -2.3 04:50:53 10° NW 04:54:04 51° NE 04:57:15 10° ESE
ATLAS 5 CENTAUR R/B 2.3 04:50:28 13° SW 04:54:39 53° NW 04:59:48 10° NNE
Cosmos 1898 Rocket 3.5 04:52:10 10° SSW 04:57:22 88° WNW 05:02:35 10° NNE
Cosmos 1892 3.3 04:56:55 10° S 05:00:44 59° E 05:04:34 10° NNE
GPS 2-05 Rocket1 3.4 04:58:55 12° WSW 05:01:49 41° S 05:05:08 10° ESE
CZ-4B R/B 3.0 04:58:30 10° NNE 05:02:30 85° ESE 05:06:42 10° SSW
Okean O Rocket 1.9 04:58:51 10° N 05:03:11 54° WNW 05:07:28 10° SSW
GENESIS II 4.2 05:00:59 10° NW 05:05:06 78° WSW 05:09:08 10° SSE
Cosmos 2150 Rocket 4.1 05:01:08 10° SSW 05:06:21 70° WNW 05:11:44 10° NNE
Meteor 2-3 Rocket 3.8 05:01:52 10° SSW 05:07:36 70° W 05:13:25 10° N
ADEOS II 3.8 05:03:35 10° NNE 05:08:21 34° E 05:13:05 10° SSE
Cosmos 292 Rocket 4.4 05:03:44 10° NNW 05:08:32 63° ENE 05:13:15 10° SSE
Cosmos 1937 Rocket 3.6 05:03:23 10° SSW 05:08:41 84° ESE 05:14:01 10° NNE
Okean 1-7 3.7 05:04:54 10° NNW 05:08:56 36° W 05:12:54 10° SSW
SL-16 R/B 3.5 05:06:51 10° NW 05:10:47 19° W 05:14:41 10° SW
GP-B 3.7 05:09:25 10° N 05:13:49 63° E 05:18:12 10° S
Cosmos 2237 4.4 05:08:30 10° NNW 05:14:16 81° ENE 05:20:00 10° SSE
CZ-2C R/B 4.4 05:14:35 10° SSW 05:18:37 34° W 05:22:44 10° NNW
Lacrosse 5 rocket 2.4 05:16:10 10° WNW 05:20:03 29° SW 05:24:01 10° S
Cosmos 1674 Rocket 3.8 05:16:45 10° N 05:21:04 75° E 05:25:23 10° SSE
